Time,TemperatureF,DewpointF,PressureIn,WindDirection,WindDirectionDegrees,WindSpeedMPH,WindSpeedGustMPH,Humidity,HourlyPrecipIn,Conditions,Clouds,dailyrainin,SoftwareType,DateUTC
2013-11-18 00:02:00,41.4,37.5,29.77,West,271,5.0,10.0,86,0.00,,SKC,0.00,VWS V14.01,2013-11-18 06:02:00,
2013-11-18 00:07:00,41.2,37.0,29.77,WNW,298,3.0,15.0,85,0.00,,SKC,0.00,VWS V14.01,2013-11-18 06:07:00,
2013-11-18 00:12:00,41.0,36.8,29.77,West,274,7.0,15.0,85,0.00,,SKC,0.00,VWS V14.01,2013-11-18 06:12:00,
2013-11-18 00:17:00,40.9,36.8,29.77,NNW,341,6.0,15.0,85,0.00,,SKC,0.00,VWS V14.01,2013-11-18 06:17:00,
2013-11-18 00:22:00,40.8,36.3,29.77,WSW,257,12.0,15.0,84,0.00,,SKC,0.00,VWS V14.01,2013-11-18 06:22:00,
2013-11-18 00:27:00,40.7,36.2,29.77,West,266,6.0,16.0,84,0.00,,SKC,0.00,VWS V14.01,2013-11-18 06:27:00,
2013-11-18 00:32:00,40.4,36.0,29.77,West,266,4.0,13.0,84,0.00,,SKC,0.00,VWS V14.01,2013-11-18 06:32:00,
2013-11-18 00:37:00,40.2,35.8,29.78,West,278,5.0,13.0,84,0.00,,SKC,0.00,VWS V14.01,2013-11-18 06:37:00,
2013-11-18 00:42:00,40.1,35.4,29.78,WNW,287,4.0,13.0,83,0.00,,SKC,0.00,VWS V14.01,2013-11-18 06:42:00,
2013-11-18 00:47:00,40.0,35.3,29.78,West,259,11.0,13.0,83,0.00,,SKC,0.00,VWS V14.01,2013-11-18 06:47:00,
2013-11-18 00:52:00,39.8,35.4,29.78,West,259,4.0,13.0,84,0.00,,SKC,0.00,VWS V14.01,2013-11-18 06:52:00,
2013-11-18 00:57:00,39.5,35.4,29.79,West,278,4.0,13.0,85,0.00,,SKC,0.00,VWS V14.01,2013-11-18 06:57:00,
2013-11-18 01:02:00,39.4,35.0,29.79,West,264,12.0,16.0,84,0.00,,SKC,0.00,VWS V14.01,2013-11-18 07:02:00,
2013-11-18 01:07:00,39.4,35.0,29.79,NW,318,10.0,16.0,84,0.00,,SKC,0.00,VWS V14.01,2013-11-18 07:07:00,
2013-11-18 01:12:00,39.4,35.0,29.80,WSW,250,9.0,16.0,84,0.00,,SKC,0.00,VWS V14.01,2013-11-18 07:12:00,
2013-11-18 01:17:00,39.1,34.7,29.80,WSW,258,6.0,16.0,84,0.00,,SKC,0.00,VWS V14.01,2013-11-18 07:17:00,
2013-11-18 01:22:00,38.9,34.8,29.80,West,280,3.0,16.0,85,0.00,,SKC,0.00,VWS V14.01,2013-11-18 07:22:00,
2013-11-18 01:27:00,38.9,34.5,29.79,West,281,5.0,16.0,84,0.00,,SKC,0.00,VWS V14.01,2013-11-18 07:27:00,
2013-11-18 01:32:00,38.6,34.5,29.80,WSW,256,9.0,9.0,85,0.00,,SKC,0.00,VWS V14.01,2013-11-18 07:32:00,
2013-11-18 01:37:00,38.4,34.6,29.80,WSW,248,14.0,15.0,86,0.00,,SKC,0.00,VWS V14.01,2013-11-18 07:37:00,
2013-11-18 01:42:00,38.5,34.7,29.80,West,269,13.0,16.0,86,0.00,,SKC,0.00,VWS V14.01,2013-11-18 07:42:00,
2013-11-18 01:47:00,38.4,34.6,29.81,WNW,284,8.0,16.0,86,0.00,,SKC,0.00,VWS V14.01,2013-11-18 07:47:00,
2013-11-18 01:52:00,38.2,34.7,29.81,WSW,253,3.0,16.0,87,0.00,,SKC,0.00,VWS V14.01,2013-11-18 07:52:00,
2013-11-18 01:57:00,38.1,34.6,29.81,West,264,9.0,16.0,87,0.00,,SKC,0.00,VWS V14.01,2013-11-18 07:57:00,
2013-11-18 02:02:00,38.1,34.6,29.81,WSW,250,10.0,15.0,87,0.00,,SKC,0.00,VWS V14.01,2013-11-18 08:02:00,
2013-11-18 02:07:00,38.0,34.5,29.82,West,260,7.0,15.0,87,0.00,,SKC,0.00,VWS V14.01,2013-11-18 08:07:00,
2013-11-18 02:12:00,37.8,34.3,29.82,WSW,243,8.0,15.0,87,0.00,,SKC,0.00,VWS V14.01,2013-11-18 08:12:00,
2013-11-18 02:17:00,37.8,34.3,29.82,West,267,10.0,16.0,87,0.00,,SKC,0.00,VWS V14.01,2013-11-18 08:17:00,
2013-11-18 02:22:00,37.7,34.2,29.82,West,278,10.0,16.0,87,0.00,,SKC,0.00,VWS V14.01,2013-11-18 08:22:00,
2013-11-18 02:27:00,37.6,34.1,29.82,WSW,257,8.0,16.0,87,0.00,,SKC,0.00,VWS V14.01,2013-11-18 08:27:00,
2013-11-18 02:32:00,37.5,34.0,29.82,WSW,255,9.0,13.0,87,0.00,,SKC,0.00,VWS V14.01,2013-11-18 08:32:00,
2013-11-18 02:37:00,37.5,34.3,29.82,WSW,252,9.0,13.0,88,0.00,,SKC,0.00,VWS V14.01,2013-11-18 08:37:00,
2013-11-18 02:42:00,37.4,34.2,29.82,West,262,10.0,16.0,88,0.00,,SKC,0.00,VWS V14.01,2013-11-18 08:42:00,
2013-11-18 02:47:00,37.4,34.2,29.82,West,267,11.0,16.0,88,0.00,,SKC,0.00,VWS V14.01,2013-11-18 08:47:00,
2013-11-18 02:52:00,37.4,34.5,29.82,West,266,6.0,16.0,89,0.00,,SKC,0.00,VWS V14.01,2013-11-18 08:52:00,
2013-11-18 02:57:00,37.4,34.5,29.82,West,273,7.0,16.0,89,0.00,,SKC,0.00,VWS V14.01,2013-11-18 08:57:00,
2013-11-18 03:02:00,37.6,34.1,29.82,West,267,9.0,20.0,87,0.00,,SKC,0.00,VWS V14.01,2013-11-18 09:02:00,
2013-11-18 03:07:00,37.5,34.0,29.82,West,265,8.0,20.0,87,0.00,,SKC,0.00,VWS V14.01,2013-11-18 09:07:00,
2013-11-18 03:12:00,37.6,33.8,29.83,WSW,257,9.0,20.0,86,0.00,,SKC,0.00,VWS V14.01,2013-11-18 09:12:00,
2013-11-18 03:17:00,37.5,33.7,29.83,West,270,14.0,20.0,86,0.00,,SKC,0.00,VWS V14.01,2013-11-18 09:17:00,
2013-11-18 03:22:00,37.4,33.6,29.83,West,266,12.0,20.0,86,0.00,,SKC,0.00,VWS V14.01,2013-11-18 09:22:00,
2013-11-18 03:27:00,37.4,33.3,29.83,West,259,10.0,20.0,85,0.00,,SKC,0.00,VWS V14.01,2013-11-18 09:27:00,
2013-11-18 03:32:00,37.3,33.5,29.83,West,273,14.0,18.0,86,0.00,,SKC,0.00,VWS V14.01,2013-11-18 09:32:00,
2013-11-18 03:37:00,37.2,33.4,29.83,WSW,255,13.0,21.0,86,0.00,,SKC,0.00,VWS V14.01,2013-11-18 09:37:00,
2013-11-18 03:42:00,36.9,33.1,29.84,WSW,243,9.0,21.0,86,0.00,,SKC,0.00,VWS V14.01,2013-11-18 09:42:00,
2013-11-18 03:47:00,36.9,33.1,29.84,WNW,288,10.0,21.0,86,0.00,,SKC,0.00,VWS V14.01,2013-11-18 09:47:00,
2013-11-18 03:52:00,36.8,33.0,29.84,West,264,9.0,21.0,86,0.00,,SKC,0.00,VWS V14.01,2013-11-18 09:52:00,
2013-11-18 03:57:00,36.7,32.9,29.84,West,276,12.0,21.0,86,0.00,,SKC,0.00,VWS V14.01,2013-11-18 09:57:00,
2013-11-18 04:02:00,36.7,32.9,29.85,West,271,17.0,17.0,86,0.00,,SKC,0.00,VWS V14.01,2013-11-18 10:02:00,
2013-11-18 04:07:00,36.8,33.0,29.85,West,269,6.0,17.0,86,0.00,,SKC,0.00,VWS V14.01,2013-11-18 10:07:00,
2013-11-18 04:12:00,36.7,32.6,29.85,WNW,288,6.0,23.0,85,0.00,,SKC,0.00,VWS V14.01,2013-11-18 10:12:00,
2013-11-18 04:17:00,36.7,32.6,29.85,West,273,6.0,23.0,85,0.00,,SKC,0.00,VWS V14.01,2013-11-18 10:17:00,
2013-11-18 04:22:00,36.6,32.5,29.86,West,268,8.0,23.0,85,0.00,,SKC,0.00,VWS V14.01,2013-11-18 10:22:00,
2013-11-18 04:27:00,36.6,32.5,29.86,WSW,257,12.0,23.0,85,0.00,,SKC,0.00,VWS V14.01,2013-11-18 10:27:00,
2013-11-18 04:32:00,36.5,32.4,29.86,West,264,9.0,15.0,85,0.00,,SKC,0.00,VWS V14.01,2013-11-18 10:32:00,
2013-11-18 04:37:00,36.3,32.2,29.86,West,281,10.0,16.0,85,0.00,,SKC,0.00,VWS V14.01,2013-11-18 10:37:00,
2013-11-18 04:42:00,36.3,32.2,29.87,WNW,284,6.0,18.0,85,0.00,,SKC,0.00,VWS V14.01,2013-11-18 10:42:00,
2013-11-18 04:47:00,36.2,32.1,29.87,WSW,256,6.0,18.0,85,0.00,,SKC,0.00,VWS V14.01,2013-11-18 10:47:00,
2013-11-18 04:52:00,35.9,31.8,29.88,WNW,287,7.0,18.0,85,0.00,,SKC,0.00,VWS V14.01,2013-11-18 10:52:00,
2013-11-18 04:57:00,35.7,31.6,29.88,NW,323,4.0,18.0,85,0.00,,SKC,0.00,VWS V14.01,2013-11-18 10:57:00,
2013-11-18 05:02:00,35.5,31.1,29.88,WSW,242,14.0,14.0,84,0.00,,SKC,0.00,VWS V14.01,2013-11-18 11:02:00,
2013-11-18 05:07:00,35.4,31.1,29.88,WNW,299,8.0,14.0,84,0.00,,SKC,0.00,VWS V14.01,2013-11-18 11:07:00,
2013-11-18 05:12:00,35.5,31.1,29.88,WNW,284,6.0,19.0,84,0.00,,SKC,0.00,VWS V14.01,2013-11-18 11:12:00,
2013-11-18 05:17:00,35.5,31.1,29.88,WNW,297,5.0,19.0,84,0.00,,SKC,0.00,VWS V14.01,2013-11-18 11:17:00,
2013-11-18 05:22:00,35.5,31.1,29.88,WNW,283,10.0,19.0,84,0.00,,SKC,0.00,VWS V14.01,2013-11-18 11:22:00,
2013-11-18 05:27:00,35.5,31.1,29.88,West,278,3.0,20.0,84,0.00,,SKC,0.00,VWS V14.01,2013-11-18 11:27:00,
2013-11-18 05:32:00,35.4,31.1,29.89,West,261,4.0,8.0,84,0.00,,SKC,0.00,VWS V14.01,2013-11-18 11:32:00,
2013-11-18 05:37:00,35.4,31.1,29.89,West,271,6.0,13.0,84,0.00,,SKC,0.00,VWS V14.01,2013-11-18 11:37:00,
2013-11-18 05:42:00,35.4,31.1,29.89,NW,307,7.0,15.0,84,0.00,,SKC,0.00,VWS V14.01,2013-11-18 11:42:00,
2013-11-18 05:47:00,35.4,31.1,29.89,West,280,4.0,15.0,84,0.00,,SKC,0.00,VWS V14.01,2013-11-18 11:47:00,
2013-11-18 05:52:00,35.4,31.1,29.89,WNW,283,7.0,15.0,84,0.00,,SKC,0.00,VWS V14.01,2013-11-18 11:52:00,
2013-11-18 05:57:00,35.4,31.1,29.90,West,259,7.0,15.0,84,0.00,,SKC,0.00,VWS V14.01,2013-11-18 11:57:00,
2013-11-18 06:02:00,35.4,30.8,29.90,West,276,9.0,18.0,83,0.00,,SKC,0.00,VWS V14.01,2013-11-18 12:02:00,
2013-11-18 06:07:00,35.5,30.6,29.90,WNW,290,9.0,18.0,82,0.00,,SKC,0.00,VWS V14.01,2013-11-18 12:07:00,
2013-11-18 06:12:00,35.4,30.8,29.90,WNW,283,5.0,18.0,83,0.00,,SKC,0.00,VWS V14.01,2013-11-18 12:12:00,
2013-11-18 06:17:00,35.4,30.5,29.90,West,271,9.0,18.0,82,0.00,,SKC,0.00,VWS V14.01,2013-11-18 12:17:00,
2013-11-18 06:22:00,35.4,30.8,29.91,West,271,8.0,18.0,83,0.00,,SKC,0.00,VWS V14.01,2013-11-18 12:22:00,
2013-11-18 06:27:00,35.4,30.8,29.91,West,271,5.0,18.0,83,0.00,,SKC,0.00,VWS V14.01,2013-11-18 12:27:00,
2013-11-18 06:32:00,35.3,30.7,29.91,West,264,4.0,13.0,83,0.00,,SKC,0.00,VWS V14.01,2013-11-18 12:32:00,
2013-11-18 06:37:00,35.3,30.7,29.92,WNW,294,3.0,13.0,83,0.00,,SKC,0.00,VWS V14.01,2013-11-18 12:37:00,
2013-11-18 06:42:00,35.3,30.4,29.92,WNW,290,18.0,18.0,82,0.00,,SKC,0.00,VWS V14.01,2013-11-18 12:42:00,
2013-11-18 06:47:00,35.2,30.0,29.92,WNW,293,16.0,18.0,81,0.00,,SKC,0.00,VWS V14.01,2013-11-18 12:47:00,
2013-11-18 06:52:00,35.2,30.0,29.92,WNW,289,5.0,19.0,81,0.00,,SKC,0.00,VWS V14.01,2013-11-18 12:52:00,
2013-11-18 06:57:00,35.3,30.1,29.93,NW,304,2.0,20.0,81,0.00,,SKC,0.00,VWS V14.01,2013-11-18 12:57:00,
2013-11-18 07:02:00,35.3,30.1,29.93,West,275,2.0,12.0,81,0.00,,SKC,0.00,VWS V14.01,2013-11-18 13:02:00,
2013-11-18 07:07:00,35.3,30.4,29.93,WSW,256,7.0,12.0,82,0.00,,SKC,0.00,VWS V14.01,2013-11-18 13:07:00,
2013-11-18 07:12:00,35.2,30.3,29.94,WNW,288,4.0,12.0,82,0.00,,SKC,0.00,VWS V14.01,2013-11-18 13:12:00,
2013-11-18 07:17:00,35.2,30.3,29.94,West,278,4.0,14.0,82,0.00,,SKC,0.00,VWS V14.01,2013-11-18 13:17:00,
2013-11-18 07:22:00,35.2,30.3,29.94,WSW,252,12.0,15.0,82,0.00,,SKC,0.00,VWS V14.01,2013-11-18 13:22:00,
2013-11-18 07:27:00,35.2,30.3,29.95,WNW,292,9.0,15.0,82,0.00,,SKC,0.00,VWS V14.01,2013-11-18 13:27:00,
2013-11-18 07:32:00,35.2,30.3,29.95,NW,312,8.0,13.0,82,0.00,,SKC,0.00,VWS V14.01,2013-11-18 13:32:00,
2013-11-18 07:37:00,35.2,30.6,29.96,NW,316,2.0,13.0,83,0.00,,SKC,0.00,VWS V14.01,2013-11-18 13:37:00,
2013-11-18 07:42:00,35.1,30.2,29.96,West,275,6.0,13.0,82,0.00,,SKC,0.00,VWS V14.01,2013-11-18 13:42:00,
2013-11-18 07:47:00,34.9,30.0,29.97,West,269,5.0,17.0,82,0.00,,SKC,0.00,VWS V14.01,2013-11-18 13:47:00,
2013-11-18 07:52:00,34.7,29.8,29.97,NNW,337,5.0,18.0,82,0.00,,SKC,0.00,VWS V14.01,2013-11-18 13:52:00,
2013-11-18 07:57:00,34.5,29.6,29.97,WNW,299,5.0,18.0,82,0.00,,SKC,0.00,VWS V14.01,2013-11-18 13:57:00,
2013-11-18 08:02:00,34.5,29.6,29.97,NW,311,4.0,16.0,82,0.00,,SKC,0.00,VWS V14.01,2013-11-18 14:02:00,
2013-11-18 08:07:00,34.5,29.6,29.98,NW,314,8.0,16.0,82,0.00,,SKC,0.00,VWS V14.01,2013-11-18 14:07:00,
2013-11-18 08:12:00,34.6,29.7,29.98,NW,306,8.0,16.0,82,0.00,,SKC,0.00,VWS V14.01,2013-11-18 14:12:00,
2013-11-18 08:17:00,34.6,29.7,29.98,NW,325,5.0,16.0,82,0.00,,SKC,0.00,VWS V14.01,2013-11-18 14:17:00,
2013-11-18 08:22:00,34.7,29.8,29.98,NNW,336,6.0,16.0,82,0.00,,SKC,0.00,VWS V14.01,2013-11-18 14:22:00,
2013-11-18 08:27:00,34.8,29.9,29.98,WSW,239,6.0,16.0,82,0.00,,SKC,0.00,VWS V14.01,2013-11-18 14:27:00,
2013-11-18 08:32:00,34.9,30.0,29.98,West,261,4.0,10.0,82,0.00,,SKC,0.00,VWS V14.01,2013-11-18 14:32:00,
2013-11-18 08:37:00,35.0,29.8,29.98,NW,307,4.0,16.0,81,0.00,,SKC,0.00,VWS V14.01,2013-11-18 14:37:00,
2013-11-18 08:42:00,35.3,30.1,29.98,WNW,292,7.0,17.0,81,0.00,,SKC,0.00,VWS V14.01,2013-11-18 14:42:00,
2013-11-18 08:47:00,35.6,29.7,29.99,NW,317,4.0,17.0,79,0.00,,SKC,0.00,VWS V14.01,2013-11-18 14:47:00,
2013-11-18 08:52:00,35.7,29.5,29.99,WSW,248,7.0,17.0,78,0.00,,SKC,0.00,VWS V14.01,2013-11-18 14:52:00,
2013-11-18 08:57:00,35.9,29.7,30.00,West,259,3.0,17.0,78,0.00,,SKC,0.00,VWS V14.01,2013-11-18 14:57:00,
2013-11-18 09:02:00,36.1,29.9,30.00,WNW,297,7.0,8.0,78,0.00,,SKC,0.00,VWS V14.01,2013-11-18 15:02:00,
2013-11-18 09:07:00,36.0,29.8,30.00,West,281,5.0,13.0,78,0.00,,SKC,0.00,VWS V14.01,2013-11-18 15:07:00,
2013-11-18 09:12:00,35.9,29.7,30.00,NW,314,9.0,18.0,78,0.00,,SKC,0.00,VWS V14.01,2013-11-18 15:12:00,
2013-11-18 09:17:00,35.9,30.0,30.01,WNW,290,6.0,18.0,79,0.00,,SKC,0.00,VWS V14.01,2013-11-18 15:17:00,
2013-11-18 09:22:00,35.9,30.0,30.01,WNW,287,7.0,18.0,79,0.00,,SKC,0.00,VWS V14.01,2013-11-18 15:22:00,
2013-11-18 09:27:00,35.8,29.9,30.01,WNW,292,6.0,18.0,79,0.00,,SKC,0.00,VWS V14.01,2013-11-18 15:27:00,
2013-11-18 09:32:00,35.7,29.5,30.02,West,259,11.0,19.0,78,0.00,,SKC,0.00,VWS V14.01,2013-11-18 15:32:00,
2013-11-18 09:37:00,36.1,30.2,30.02,West,264,7.0,19.0,79,0.00,,SKC,0.00,VWS V14.01,2013-11-18 15:37:00,
2013-11-18 09:42:00,36.2,29.7,30.02,West,273,7.0,21.0,77,0.00,,SKC,0.00,VWS V14.01,2013-11-18 15:42:00,
2013-11-18 09:47:00,36.4,29.9,30.02,West,281,10.0,21.0,77,0.00,,SKC,0.00,VWS V14.01,2013-11-18 15:47:00,
2013-11-18 09:52:00,36.6,29.8,30.02,West,281,9.0,21.0,76,0.00,,SKC,0.00,VWS V14.01,2013-11-18 15:52:00,
2013-11-18 09:57:00,36.9,30.7,30.03,WSW,252,12.0,21.0,78,0.00,,SKC,0.00,VWS V14.01,2013-11-18 15:57:00,
2013-11-18 10:02:00,37.4,30.5,30.03,NW,304,8.0,10.0,76,0.00,,SKC,0.00,VWS V14.01,2013-11-18 16:02:00,
2013-11-18 10:07:00,37.1,29.9,30.03,NW,310,8.0,13.0,75,0.00,,SKC,0.00,VWS V14.01,2013-11-18 16:07:00,
2013-11-18 10:12:00,37.2,30.4,30.04,NNW,330,10.0,16.0,76,0.00,,SKC,0.00,VWS V14.01,2013-11-18 16:12:00,
2013-11-18 10:17:00,37.5,31.0,30.04,West,278,4.0,16.0,77,0.00,,SKC,0.00,VWS V14.01,2013-11-18 16:17:00,
2013-11-18 10:22:00,37.5,30.0,30.04,West,273,15.0,17.0,74,0.00,,SKC,0.00,VWS V14.01,2013-11-18 16:22:00,
2013-11-18 10:27:00,37.8,30.9,30.04,West,278,12.0,20.0,76,0.00,,SKC,0.00,VWS V14.01,2013-11-18 16:27:00,
2013-11-18 10:32:00,37.9,30.0,30.05,West,266,6.0,18.0,73,0.00,,SKC,0.00,VWS V14.01,2013-11-18 16:32:00,
2013-11-18 10:37:00,37.5,29.3,30.05,WNW,300,7.0,18.0,72,0.00,,SKC,0.00,VWS V14.01,2013-11-18 16:37:00,
2013-11-18 10:42:00,37.4,29.2,30.05,WSW,240,11.0,18.0,72,0.00,,SKC,0.00,VWS V14.01,2013-11-18 16:42:00,
2013-11-18 10:47:00,37.4,29.2,30.05,WNW,285,9.0,18.0,72,0.00,,SKC,0.00,VWS V14.01,2013-11-18 16:47:00,
2013-11-18 10:52:00,37.7,29.8,30.05,WSW,255,2.0,18.0,73,0.00,,SKC,0.00,VWS V14.01,2013-11-18 16:52:00,
2013-11-18 10:57:00,37.9,30.0,30.06,West,280,4.0,18.0,73,0.00,,SKC,0.00,VWS V14.01,2013-11-18 16:57:00,
2013-11-18 11:02:00,38.1,30.2,30.06,West,267,10.0,13.0,73,0.00,,SKC,0.00,VWS V14.01,2013-11-18 17:02:00,
2013-11-18 11:07:00,38.2,30.0,30.06,West,281,9.0,13.0,72,0.00,,SKC,0.00,VWS V14.01,2013-11-18 17:07:00,
2013-11-18 11:12:00,38.4,30.2,30.06,NNW,329,9.0,17.0,72,0.00,,SKC,0.00,VWS V14.01,2013-11-18 17:12:00,
2013-11-18 11:17:00,38.7,29.8,30.06,NNW,333,8.0,17.0,70,0.00,,SKC,0.00,VWS V14.01,2013-11-18 17:17:00,
2013-11-18 11:22:00,38.2,29.3,30.07,WNW,283,4.0,17.0,70,0.00,,SKC,0.00,VWS V14.01,2013-11-18 17:22:00,
2013-11-18 11:27:00,38.3,29.7,30.06,West,270,10.0,19.0,71,0.00,,SKC,0.00,VWS V14.01,2013-11-18 17:27:00,
2013-11-18 11:32:00,38.4,29.5,30.07,WSW,252,11.0,14.0,70,0.00,,SKC,0.00,VWS V14.01,2013-11-18 17:32:00,
2013-11-18 11:37:00,38.7,30.1,30.07,West,281,3.0,15.0,71,0.00,,SKC,0.00,VWS V14.01,2013-11-18 17:37:00,
2013-11-18 11:42:00,38.9,30.3,30.07,WNW,293,8.0,15.0,71,0.00,,SKC,0.00,VWS V14.01,2013-11-18 17:42:00,
2013-11-18 11:47:00,38.8,29.9,30.07,West,264,13.0,18.0,70,0.00,,SKC,0.00,VWS V14.01,2013-11-18 17:47:00,
2013-11-18 11:52:00,38.7,30.1,30.07,WNW,282,16.0,21.0,71,0.00,,SKC,0.00,VWS V14.01,2013-11-18 17:52:00,
2013-11-18 11:57:00,38.8,29.5,30.07,North,360,10.0,21.0,69,0.00,,SKC,0.00,VWS V14.01,2013-11-18 17:57:00,
2013-11-18 12:02:00,39.2,29.9,30.07,West,273,7.0,14.0,69,0.00,,SKC,0.00,VWS V14.01,2013-11-18 18:02:00,
2013-11-18 12:07:00,39.6,30.3,30.07,West,259,6.0,14.0,69,0.00,,SKC,0.00,VWS V14.01,2013-11-18 18:07:00,
2013-11-18 12:12:00,39.7,29.7,30.07,West,262,15.0,20.0,67,0.00,,SKC,0.00,VWS V14.01,2013-11-18 18:12:00,
2013-11-18 12:17:00,39.8,29.8,30.07,WSW,252,14.0,20.0,67,0.00,,SKC,0.00,VWS V14.01,2013-11-18 18:17:00,
2013-11-18 12:22:00,39.7,29.7,30.07,West,278,13.0,22.0,67,0.00,,SKC,0.00,VWS V14.01,2013-11-18 18:22:00,
2013-11-18 12:27:00,39.8,29.8,30.08,NNW,333,4.0,22.0,67,0.00,,SKC,0.00,VWS V14.01,2013-11-18 18:27:00,
2013-11-18 12:32:00,40.2,30.5,30.08,NW,312,12.0,17.0,68,0.00,,SKC,0.00,VWS V14.01,2013-11-18 18:32:00,
2013-11-18 12:37:00,40.3,30.2,30.08,West,281,9.0,17.0,67,0.00,,SKC,0.00,VWS V14.01,2013-11-18 18:37:00,
2013-11-18 12:42:00,40.6,30.9,30.08,NW,307,8.0,17.0,68,0.00,,SKC,0.00,VWS V14.01,2013-11-18 18:42:00,
2013-11-18 12:47:00,41.0,30.5,30.08,WSW,257,8.0,17.0,66,0.00,,SKC,0.00,VWS V14.01,2013-11-18 18:47:00,
2013-11-18 12:52:00,41.3,30.4,30.08,West,266,12.0,17.0,65,0.00,,SKC,0.00,VWS V14.01,2013-11-18 18:52:00,
2013-11-18 12:57:00,40.9,29.7,30.08,West,259,7.0,18.0,64,0.00,,SKC,0.00,VWS V14.01,2013-11-18 18:57:00,
2013-11-18 13:02:00,41.0,30.1,30.09,West,280,8.0,16.0,65,0.00,,SKC,0.00,VWS V14.01,2013-11-18 19:02:00,
2013-11-18 13:07:00,41.2,30.7,30.09,WNW,295,8.0,16.0,66,0.00,,SKC,0.00,VWS V14.01,2013-11-18 19:07:00,
2013-11-18 13:12:00,41.3,30.4,30.09,West,270,6.0,18.0,65,0.00,,SKC,0.00,VWS V14.01,2013-11-18 19:12:00,
2013-11-18 13:17:00,41.1,29.9,30.09,WNW,285,8.0,20.0,64,0.00,,SKC,0.00,VWS V14.01,2013-11-18 19:17:00,
2013-11-18 13:22:00,41.1,29.9,30.09,West,270,5.0,20.0,64,0.00,,SKC,0.00,VWS V14.01,2013-11-18 19:22:00,
2013-11-18 13:27:00,41.3,30.4,30.09,West,266,2.0,20.0,65,0.00,,SKC,0.00,VWS V14.01,2013-11-18 19:27:00,
2013-11-18 13:32:00,41.6,30.7,30.09,WSW,253,4.0,14.0,65,0.00,,SKC,0.00,VWS V14.01,2013-11-18 19:32:00,
2013-11-18 13:37:00,41.7,31.2,30.09,West,266,13.0,15.0,66,0.00,,SKC,0.00,VWS V14.01,2013-11-18 19:37:00,
2013-11-18 13:42:00,41.7,31.9,30.09,West,281,3.0,15.0,68,0.00,,SKC,0.00,VWS V14.01,2013-11-18 19:42:00,
2013-11-18 13:47:00,42.1,31.6,30.10,WNW,287,4.0,15.0,66,0.00,,SKC,0.00,VWS V14.01,2013-11-18 19:47:00,
2013-11-18 13:52:00,41.9,31.4,30.09,West,273,13.0,18.0,66,0.00,,SKC,0.00,VWS V14.01,2013-11-18 19:52:00,
2013-11-18 13:57:00,41.7,30.4,30.10,NW,304,6.0,19.0,64,0.00,,SKC,0.00,VWS V14.01,2013-11-18 19:57:00,
2013-11-18 14:02:00,41.9,30.6,30.10,WNW,283,9.0,12.0,64,0.00,,SKC,0.00,VWS V14.01,2013-11-18 20:02:00,
2013-11-18 14:07:00,42.0,29.9,30.10,West,271,10.0,16.0,62,0.00,,SKC,0.00,VWS V14.01,2013-11-18 20:07:00,
2013-11-18 14:12:00,41.9,29.9,30.10,West,273,9.0,16.0,62,0.00,,SKC,0.00,VWS V14.01,2013-11-18 20:12:00,
2013-11-18 14:17:00,42.2,30.9,30.10,West,266,4.0,16.0,64,0.00,,SKC,0.00,VWS V14.01,2013-11-18 20:17:00,
2013-11-18 14:22:00,42.4,30.7,30.10,West,278,9.0,16.0,63,0.00,,SKC,0.00,VWS V14.01,2013-11-18 20:22:00,
2013-11-18 14:27:00,42.2,30.1,30.10,West,278,8.0,16.0,62,0.00,,SKC,0.00,VWS V14.01,2013-11-18 20:27:00,
2013-11-18 14:32:00,42.1,28.8,30.10,WNW,283,9.0,19.0,59,0.00,,SKC,0.00,VWS V14.01,2013-11-18 20:32:00,
2013-11-18 18:24:00,34.3,28.0,30.19,West,281,2.0,4.0,77,0.00,,,0.00,weatherlink.com 1.10,2013-11-19 00:24:00,
2013-11-18 18:36:00,34.2,28.0,30.19,West,259,1.0,6.0,78,0.00,,,0.00,weatherlink.com 1.10,2013-11-19 00:36:00,
2013-11-18 18:49:00,33.8,28.0,30.20,WNW,284,1.0,4.0,78,0.00,,,0.00,weatherlink.com 1.10,2013-11-19 00:49:00,
2013-11-18 19:04:00,33.7,28.0,30.20,WNW,287,3.0,5.0,79,0.00,,,0.00,weatherlink.com 1.10,2013-11-19 01:04:00,
2013-11-18 19:19:00,33.5,28.0,30.20,West,260,0.0,4.0,79,0.00,,,0.00,weatherlink.com 1.10,2013-11-19 01:19:00,
2013-11-18 19:34:00,32.9,27.0,30.21,West,271,0.0,1.0,80,0.00,,,0.00,weatherlink.com 1.10,2013-11-19 01:34:00,
2013-11-18 19:49:00,32.4,27.0,30.22,West,277,0.0,1.0,81,0.00,,,0.00,weatherlink.com 1.10,2013-11-19 01:49:00,
2013-11-18 20:04:00,32.3,27.0,30.23,West,277,0.0,1.0,81,0.00,,,0.00,weatherlink.com 1.10,2013-11-19 02:04:00,
2013-11-18 20:19:00,32.2,27.0,30.23,West,276,0.0,1.0,81,0.00,,,0.00,weatherlink.com 1.10,2013-11-19 02:19:00,
2013-11-18 20:34:00,31.9,27.0,30.23,West,277,0.0,0.0,82,0.00,,,0.00,weatherlink.com 1.10,2013-11-19 02:34:00,
2013-11-18 20:49:00,31.8,27.0,30.23,West,277,0.0,1.0,82,0.00,,,0.00,weatherlink.com 1.10,2013-11-19 02:49:00,
2013-11-18 21:04:00,31.2,27.0,30.24,West,273,0.0,2.0,84,0.00,,,0.00,weatherlink.com 1.10,2013-11-19 03:04:00,
2013-11-18 21:19:00,30.8,27.0,30.23,West,271,0.0,1.0,84,0.00,,,0.00,weatherlink.com 1.10,2013-11-19 03:19:00,
2013-11-18 21:34:00,30.1,26.0,30.25,West,270,0.0,1.0,86,0.00,,,0.00,weatherlink.com 1.10,2013-11-19 03:34:00,
2013-11-18 21:49:00,30.0,27.0,30.25,West,273,0.0,1.0,87,0.00,,,0.00,weatherlink.com 1.10,2013-11-19 03:49:00,
2013-11-18 22:04:00,29.6,26.0,30.26,West,262,1.0,2.0,87,0.00,,,0.00,weatherlink.com 1.10,2013-11-19 04:04:00,
2013-11-18 22:19:00,28.6,26.0,30.26,West,262,0.0,1.0,89,0.00,,,0.00,weatherlink.com 1.10,2013-11-19 04:19:00,
2013-11-18 22:34:00,29.3,27.0,30.26,NW,315,3.0,5.0,89,0.00,,,0.00,weatherlink.com 1.10,2013-11-19 04:34:00,
2013-11-18 22:49:00,29.1,26.0,30.25,NNW,347,0.0,2.0,89,0.00,,,0.00,weatherlink.com 1.10,2013-11-19 04:49:00,
2013-11-18 23:04:00,28.9,26.0,30.25,NW,323,0.0,2.0,89,0.00,,,0.00,weatherlink.com 1.10,2013-11-19 05:04:00,
2013-11-18 23:19:00,28.3,26.0,30.26,SW,232,0.0,1.0,91,0.00,,,0.00,weatherlink.com 1.10,2013-11-19 05:19:00,
2013-11-18 23:34:00,28.1,26.0,30.26,West,264,0.0,2.0,92,0.00,,,0.00,weatherlink.com 1.10,2013-11-19 05:34:00,
2013-11-18 23:49:00,27.9,26.0,30.26,SW,236,0.0,1.0,92,0.00,,,0.00,weatherlink.com 1.10,2013-11-19 05:49:00,